Location: Newark
(48.9358°N, 1.4000°E)
Time: 17:07:15
(UTC+00:00)

N. Korean satellite - Pass Details

Date: 22 October 2019
Orbit: 456 x 506 km, 97.2° (Epoch: 21 November)

Event Time Altitude Azimuth Distance (km) Brightness Sun altitude
Rises 17:42:06 0° 197° (SSW) 2,467 10.5 -8.9°
Reaches altitude 10° 17:44:26 10° 213° (SSW) 1,602 9.8 -9.3°
Maximum altitude 17:47:11 22° 266° (W) 1,054 9.4 -9.7°
Drops below altitude 10° 17:49:59 10° 320° (NW) 1,628 9.7 -10.2°
Sets 17:52:22 0° 336° (NNW) 2,518 10.5 -10.6°
